TimeEST,TemperatureF,Dew PointF,Humidity,Sea Level PressureIn,VisibilityMPH,Wind Direction,Wind SpeedMPH,Gust SpeedMPH,PrecipitationIn,Events,Conditions,WindDirDegrees,DateUTC
12:56 AM,34.0,24.1,67,30.28,-9999.0,East,8.1,-,N/A,,Unknown,80,2012-11-05 05:56:00
1:56 AM,33.1,23.0,66,30.28,-9999.0,East,6.9,-,N/A,,Unknown,80,2012-11-05 06:56:00
2:56 AM,33.1,24.1,70,30.28,-9999.0,East,8.1,-,N/A,,Unknown,90,2012-11-05 07:56:00
3:56 AM,33.1,21.9,64,30.28,-9999.0,East,8.1,-,N/A,,Unknown,90,2012-11-05 08:56:00
4:56 AM,32.0,21.0,64,30.29,-9999.0,East,5.8,-,N/A,,Unknown,100,2012-11-05 09:56:00
5:56 AM,30.9,19.0,61,30.29,-9999.0,ESE,10.4,-,N/A,,Unknown,110,2012-11-05 10:56:00
6:56 AM,30.0,18.0,61,30.30,-9999.0,ESE,8.1,-,N/A,,Unknown,120,2012-11-05 11:56:00
7:56 AM,30.0,17.1,59,30.31,-9999.0,ESE,5.8,-,N/A,,Unknown,110,2012-11-05 12:56:00
8:56 AM,30.0,18.0,61,30.32,-9999.0,East,9.2,-,N/A,,Unknown,100,2012-11-05 13:56:00
9:56 AM,30.0,18.0,61,30.32,-9999.0,East,8.1,-,N/A,,Unknown,100,2012-11-05 14:56:00
10:56 AM,30.0,17.1,59,30.31,-9999.0,SSE,4.6,-,N/A,,Unknown,160,2012-11-05 15:56:00
11:56 AM,33.1,18.0,54,30.29,-9999.0,Variable,4.6,-,N/A,,Unknown,0,2012-11-05 16:56:00
12:56 PM,34.0,17.1,50,30.27,-9999.0,Variable,4.6,-,N/A,,Unknown,0,2012-11-05 17:56:00
1:56 PM,34.0,18.0,52,30.25,-9999.0,East,3.5,-,N/A,,Unknown,100,2012-11-05 18:56:00
2:56 PM,35.1,17.1,48,30.23,-9999.0,Calm,Calm,-,N/A,,Unknown,0,2012-11-05 19:56:00
3:56 PM,35.1,16.0,46,30.21,-9999.0,Variable,4.6,-,N/A,,Unknown,0,2012-11-05 20:56:00
4:56 PM,34.0,16.0,48,30.21,-9999.0,South,4.6,-,N/A,,Unknown,180,2012-11-05 21:56:00
5:56 PM,30.9,18.0,59,30.20,-9999.0,South,4.6,-,N/A,,Unknown,170,2012-11-05 22:56:00
6:56 PM,30.0,18.0,61,30.21,-9999.0,SSW,3.5,-,N/A,,Unknown,200,2012-11-05 23:56:00
7:56 PM,28.9,19.0,67,30.20,-9999.0,SSW,5.8,-,N/A,,Unknown,210,2012-11-06 00:56:00
8:56 PM,28.0,19.0,69,30.18,-9999.0,South,4.6,-,N/A,,Unknown,180,2012-11-06 01:56:00
9:56 PM,28.9,19.9,69,30.17,-9999.0,South,3.5,-,N/A,,Unknown,190,2012-11-06 02:56:00
10:56 PM,30.0,19.9,66,30.15,-9999.0,SSW,3.5,-,N/A,,Unknown,200,2012-11-06 03:56:00
11:56 PM,28.0,19.9,72,30.12,-9999.0,South,5.8,-,N/A,,Unknown,190,2012-11-06 04:56:00